Location: Azat
(46.0765°N, 1.7600°E)
Time: 15:31:29
(UTC+00:00)

STARLINK-1138 - Pass Details

Date: 09 April 2020
Orbit: 549 x 551 km, 53.0° (Epoch: 28 May)

Event Time Altitude Azimuth Distance (km) Brightness Sun altitude
Rises 19:44:02 0° 299° (WNW) 2,733 9.3 -12.5°
Reaches altitude 10° 19:46:20 10° 305° (NW) 1,837 7.7 -12.9°
Maximum altitude 19:50:23 48° 21° (NNE) 728 4.2 -13.5°
Enters shadow 19:53:02 20° 89° (E) 1,319 5.0 -13.9°
